Vorticity
nan nan nan nan nan nan nan nan nan nan nan nan nan nan nan nan nan nan nan nan nan nan nan nan nan nan nan nan nan nan nan nan nan nan nan nan nan nan nan nan nan nan nan nan nan
nan 5 5 6 6 7 7 7 6 7 7 7 7 8 8 14 19 8 10 12 8 3 4 3 8 7 5 8 8 7 7 9 10 12 11 9 7 6 8 0 4 11 16 13 nan
nan 7 6 6 6 7 7 7 7 7 7 8 8 9 9 15 14 8 12 12 3 2 3 7 8 6 7 9 8 7 10 9 9 16 13 5 3 10 8 3 12 11 6 5 nan
nan 7 7 6 6 7 7 7 7 7 8 8 9 10 16 16 8 3 16 19 6 3 5 6 8 8 8 9 10 7 7 11 13 13 9 6 3 6 4 13 20 15 5 3 nan
nan 7 7 8 8 8 8 7 6 7 9 9 9 13 16 10 5 8 19 13 6 5 7 6 8 8 9 10 10 8 6 10 14 12 8 5 5 3 9 14 13 9 6 5 nan
nan 7 7 7 8 9 8 7 7 9 10 10 11 14 13 8 5 10 12 5 4 6 7 7 7 8 8 9 8 9 9 8 9 9 7 6 3 7 15 10 8 7 5 4 nan
nan 7 7 7 7 7 8 9 10 12 13 15 14 11 8 6 5 9 7 7 8 6 7 8 6 10 8 10 10 7 2 4 5 5 8 7 2 12 14 8 5 5 4 6 nan
nan 7 8 7 7 8 9 11 16 19 22 19 11 8 8 7 7 9 9 9 8 7 8 9 8 8 12 10 6 5 4 6 7 5 6 1 8 15 12 7 5 5 5 6 nan
nan 8 7 7 8 9 11 17 22 21 18 9 4 7 9 9 9 10 10 8 7 8 9 8 7 10 13 3 4 4 6 7 10 10 4 4 5 15 9 5 5 6 6 5 nan
nan 7 7 7 8 10 19 25 18 10 6 4 7 8 8 6 7 11 11 8 8 9 7 6 9 10 10 6 6 9 8 9 10 13 6 4 4 12 9 6 4 5 6 7 nan
nan 8 7 7 10 15 24 19 12 8 4 8 5 6 5 7 11 10 10 8 7 10 7 8 11 7 9 10 11 10 7 8 10 13 11 7 10 12 10 5 7 5 6 6 nan
nan 6 7 10 11 24 18 12 10 5 9 11 6 7 8 10 11 11 10 7 10 9 6 8 9 8 8 8 4 7 10 10 10 11 9 8 14 18 18 8 6 6 5 5 nan
nan 8 7 8 26 24 13 9 3 8 8 11 13 11 14 10 9 10 5 6 10 9 10 7 6 8 6 6 4 7 9 6 8 10 9 9 15 13 14 13 9 8 8 10 nan
nan 7 6 26 27 8 12 1 10 10 8 12 10 12 11 7 11 9 9 7 11 11 4 6 8 8 6 8 8 9 8 6 8 10 9 11 11 14 13 16 13 11 10 9 nan
nan 9 16 23 13 8 4 7 14 11 7 10 11 9 11 11 9 8 9 14 13 8 6 9 8 5 6 10 8 10 8 9 11 10 6 10 10 9 9 14 21 16 11 11 nan
nan 8 18 19 10 5 2 15 13 9 8 9 11 10 6 8 8 11 9 7 9 6 9 10 8 8 8 7 9 9 8 8 8 9 7 6 10 7 8 8 15 19 17 14 nan
nan 12 20 11 5 8 14 15 9 8 7 9 11 13 8 8 8 13 14 6 7 8 5 2 5 8 9 6 7 6 6 8 7 6 7 9 11 8 8 10 12 14 15 16 nan
nan 26 23 8 2 10 16 11 8 7 8 7 10 14 12 5 5 13 13 4 5 10 12 11 6 5 5 7 5 10 8 10 9 8 8 12 8 6 8 14 14 8 13 13 nan
nan 26 10 11 13 10 10 8 9 7 5 9 12 8 10 9 9 8 12 11 6 7 6 10 9 10 12 13 12 6 10 9 11 7 9 7 8 8 8 13 11 8 11 10 nan
nan 10 10 16 14 8 8 8 9 6 7 10 9 11 14 11 9 9 8 10 11 10 7 8 7 10 12 6 9 14 11 6 7 7 8 6 11 12 9 11 11 7 8 10 nan
nan 8 12 13 9 10 11 9 10 10 10 7 7 9 10 11 11 13 7 4 12 13 10 8 7 7 6 12 5 8 1 7 8 8 9 10 11 14 7 12 17 7 9 10 nan
nan 9 9 9 10 10 12 8 7 12 11 8 9 9 11 10 10 11 7 10 16 13 10 4 8 6 3 4 12 11 12 8 8 10 5 9 11 14 10 14 17 10 9 9 nan
nan 11 10 13 10 9 9 10 9 11 9 9 10 12 10 9 10 12 10 11 13 12 12 8 8 10 10 5 11 12 12 7 8 13 11 6 9 5 9 13 14 12 8 9 nan
nan 12 8 10 10 10 10 10 11 12 9 9 11 11 10 8 11 13 9 7 8 10 16 12 9 12 8 7 8 15 12 11 5 4 10 6 7 8 15 11 9 12 9 8 nan
nan 8 11 12 8 7 8 9 10 12 11 12 13 11 10 9 9 10 9 8 7 10 16 12 7 10 9 15 11 10 12 9 4 3 -2 9 12 7 14 22 15 12 10 7 nan
nan 10 9 10 12 10 10 9 9 8 11 12 10 14 15 7 10 12 9 10 9 8 9 11 14 11 13 15 12 8 11 10 6 7 8 7 7 12 5 15 20 16 13 7 nan
nan nan nan nan nan nan nan nan nan nan nan nan nan nan nan nan nan nan nan nan nan nan nan nan nan nan nan nan nan nan nan nan nan nan nan nan nan nan nan nan nan nan nan nan nan
CAPE
1 2 0 0 1 0 0 1 1 2 2 1 3 2 4 1 0 0 0 0 0 79 2 21 7 0 0 0 0 0 517 483 457 527 665 392 272 188 75 93 55 138 204 374 540
0 1 0 2 2 2 2 1 1 1 2 1 2 2 3 1 0 0 0 0 117 285 0 0 0 0 0 0 0 6 498 367 335 453 689 439 385 269 141 66 254 524 606 675 432
2 1 2 3 2 2 2 2 2 3 2 2 2 2 2 1 0 0 144 0 243 219 0 0 0 0 0 0 0 8 335 130 498 475 626 467 493 369 243 170 156 314 537 558 496
3 4 3 3 2 2 2 2 3 2 1 5 2 1 1 0 0 0 807 100 72 0 0 0 0 0 0 0 0 286 608 721 640 626 617 614 521 339 272 285 111 250 389 398 199
0 0 0 1 4 3 4 4 3 0 0 3 1 1 0 0 0 0 519 343 0 0 0 0 0 0 0 4 311 540 555 541 552 572 672 605 523 419 187 149 258 327 329 205 113
0 0 0 0 0 4 5 5 0 0 0 4 1 0 0 0 0 0 0 0 0 0 0 0 0 0 1 167 418 471 526 452 542 607 578 612 406 323 104 222 320 359 387 371 300
0 1 0 1 0 1 2 0 0 0 1 1 0 0 0 0 0 0 0 0 0 0 0 0 0 0 33 421 299 438 531 516 435 477 547 506 459 463 156 281 355 401 413 432 427
3 0 0 0 0 0 0 0 1 2 1 0 0 0 0 0 0 0 0 0 0 0 0 0 0 0 23 308 254 380 345 629 442 380 405 287 466 381 117 356 416 430 461 441 467
0 0 0 0 0 0 0 2 0 0 0 0 0 0 0 0 0 0 0 0 0 0 0 0 0 0 16 384 448 316 497 401 196 292 421 322 347 443 194 216 408 427 427 363 371
1 0 0 1 0 0 1 0 0 0 0 0 0 0 0 0 0 0 0 0 0 0 0 0 0 0 0 168 241 316 239 89 154 287 282 248 361 351 410 293 313 298 341 357 355
1 0 0 0 0 1 0 0 0 0 0 0 0 0 0 0 0 0 0 0 0 0 0 0 22 50 7 14 5 12 34 69 46 151 385 423 350 122 603 417 390 398 419 469 332
1 0 0 1 0 0 0 0 0 0 0 0 0 0 0 0 0 0 0 0 0 0 0 0 23 0 0 4 51 54 83 123 63 271 377 194 233 217 518 661 509 486 467 546 525
0 1 0 0 0 0 0 0 0 0 0 0 0 0 0 0 0 0 0 0 0 0 0 2 0 0 8 18 58 42 105 107 82 32 215 118 220 387 199 525 626 547 452 500 493
0 1 0 0 0 0 0 0 0 0 0 0 0 0 0 0 0 0 0 0 0 0 0 0 0 0 7 24 27 101 29 47 46 71 82 2 26 261 66 358 237 318 598 501 461
0 0 0 0 0 0 0 0 0 0 0 0 0 0 0 0 0 0 0 0 0 0 0 22 0 0 29 10 16 80 14 0 0 46 5 5 93 183 9 302 409 399 333 634 588
0 0 0 0 0 0 0 0 0 0 0 0 0 0 0 0 0 0 0 0 0 0 0 0 0 0 0 3 11 4 12 5 0 1 47 0 3 41 97 210 105 298 339 258 357
0 0 3 1 0 0 0 0 0 0 0 0 0 0 0 0 0 0 0 0 0 0 0 0 0 0 0 0 1 17 202 267 159 59 22 0 21 162 127 44 122 251 1179 918 742
0 0 0 0 0 0 0 0 0 0 0 0 0 0 0 0 0 0 0 0 0 0 0 0 0 0 0 0 4 13 5 16 186 101 33 0 104 63 275 339 59 4 1 1036 795
0 0 0 0 0 0 0 0 0 0 0 0 0 0 0 0 0 0 0 0 0 0 0 0 0 0 0 0 0 0 44 16 18 0 0 0 15 98 465 395 133 198 262 1007 960
0 0 0 0 0 0 0 0 0 0 0 0 0 0 0 0 0 0 0 0 0 0 0 0 0 0 0 0 0 0 0 0 0 14 0 0 476 356 686 637 434 520 956 791 996
0 0 0 0 0 0 0 0 0 0 0 0 0 0 0 0 0 0 0 0 0 0 0 0 0 0 0 0 0 0 0 0 0 0 0 0 18 885 893 636 599 843 1285 1229 1137
0 0 0 0 0 0 0 0 0 0 0 0 0 0 0 0 0 0 0 0 0 0 0 0 0 0 0 0 0 0 0 0 0 0 0 21 0 0 338 618 591 1111 1472 1534 1531
0 0 0 0 0 0 0 0 0 0 0 0 0 0 0 0 0 0 0 0 0 0 0 0 0 0 0 0 0 0 0 0 0 0 0 0 0 119 427 659 825 1323 1580 2007 2053
0 0 0 0 0 0 0 0 0 0 0 0 0 0 0 0 0 0 0 0 0 0 0 0 0 0 0 0 0 0 0 0 0 0 3 0 1 7 191 749 790 1413 1603 2094 2184
0 0 0 0 0 0 0 0 0 0 0 0 0 0 0 0 0 0 0 0 0 0 0 0 0 0 0 0 0 0 0 0 0 0 0 0 0 0 96 116 772 1177 1647 2136 2244
0 0 0 0 0 0 0 0 0 0 0 0 0 0 0 0 0 0 0 0 0 0 0 0 0 0 0 0 0 0 0 0 0 0 0 0 2 0 120 299 429 1230 1788 2167 2329
0 0 0 0 0 0 0 0 0 0 0 0 0 0 0 0 0 0 0 0 0 8 10 0 0 0 0 0 0 0 0 53 61 45 6 16 15 59 313 369 504 1122 1782 2117 2406